Powrót do katalogu

MARS 2020

AktywnyNaukaMEO
NORAD 45983·PAYLOAD·🇺🇸 United States

Wystrzelony Jul 30, 2020 z Cape Canaveral Space Force Station

Loading…

Następne Przeloty (najbliższe 24 godziny)

TLE

NieaktualneSource: Space-Track

Epoka: Jul 30, 2020, 13:39 UTC

1 45983U 20052A   20212.56905538 -.00000119  00000-0  00000+0 0  9997
2 45983  32.2087 317.6209 0065000 265.1078 118.6367  1.42484766    16

Śledź MARS 2020 w czasie rzeczywistym z AllMySat

Download on the App Store